Content
SEND FEEDBACK

Daily
Averages
Monthly
Summary
United States of America

ST. LOUIS, MISSOURI


Home > North America > United States > Missouri
Elevation: 163 meters     Latitude: 38 45N     Longitude: 090 22W

WEATHER
 
SELECT A DAY
Number of Records: 196,268;   Date Range: 1/1/95 - 7/20/14
 
SHARE

PRINT THIS DATA

[ ← Previous Day ]
WEATHER ALMANAC - 3 JANUARY, 2013
[ Next Day → ]
[ °F ]   °C
Weather ElementAverageHighLow
Temperature-2.7 °C4.4 °C (2:54 pm)-10 °C (6:54 am)
Dewpoint-6.7 °C-3.3 °C (3:54 pm)-12.2 °C (7:54 am)
Humidity75 %88 % (6:54 am)55 % (2:54 pm)
Barometer1028.4 hPa1030.5 hPa (7:54 pm)1025.1 hPa (1:54 am)
Wind Speed6.8 km/h14.8 km/h (9:54 am)
Weather ElementAverage
Visibility15.4 km
Wind DirectionSSE (169.6 °)

Weather ElementTotal
Precipitation---
Heating Degree Days21.2 (Base 18.3)
Averaged from 23 records on 3 January, 2013
WEATHER CONDITIONS BREAKOUT
WIND DIRECTION BREAKOUT
WEATHER BY HOUR - 3 JANUARY, 2013
[ °F ]   °C
Local TimeTemperatureDewpointHumidityBarometerVisibilityWind DirectionWind SpeedGust SpeedPrecipitationEventsConditions
1:54 AM-8.9 °C-11.1 °C84 %1025.1 hPa16.1 kmWest (260°)9.3 km/hClear
2:54 AM-8.9 °C-11.1 °C84 %1025.4 hPa14.5 kmCalmMostly Cloudy
3:54 AM-7.8 °C-10 °C84 %1025.1 hPa16.1 kmCalmScattered Clouds
4:54 AM-7.2 °C-10.6 °C77 %1025.7 hPa16.1 kmCalmClear
5:54 AM-8.3 °C-10.6 °C84 %1026.4 hPa16.1 kmCalmClear
6:54 AM-10 °C-11.7 °C88 %1027.1 hPa16.1 kmCalmClear
7:54 AM-10 °C-12.2 °C84 %1027.8 hPa14.5 kmCalmClear
8:54 AM-5.6 °C-8.3 °C82 %1028.8 hPa12.9 kmWNW (290°)7.4 km/hClear
9:54 AM-2.2 °C-5.6 °C78 %1029.5 hPa9.7 kmWSW (250°)14.8 km/hHaze
10:54 AM0 °C-4.4 °C73 %1029.5 hPa14.5 kmWest (270°)9.3 km/hClear
11:54 AM1.1 °C-3.9 °C70 %1028.8 hPa16.1 kmWSW (250°)14.8 km/hClear
12:54 PM2.8 °C-3.9 °C62 %1028.1 hPa16.1 kmWSW (250°)14.8 km/hClear
1:54 PM3.9 °C-3.9 °C57 %1027.8 hPa16.1 kmWSW (240°)13 km/hMostly Cloudy
2:54 PM4.4 °C-3.9 °C55 %1028.1 hPa16.1 kmWest (270°)9.3 km/hMostly Cloudy
3:54 PM3.3 °C-3.3 °C62 %1028.4 hPa16.1 kmWest (270°)9.3 km/hMostly Cloudy
4:54 PM1.1 °C-4.4 °C67 %1028.8 hPa16.1 kmWest (260°)11.1 km/hMostly Cloudy
5:54 PM0.6 °C-4.4 °C70 %1029.5 hPa16.1 kmWSW (250°)9.3 km/hOvercast
6:54 PM0.6 °C-3.9 °C72 %1030.1 hPa16.1 kmWest (280°)5.6 km/hOvercast
7:54 PM0.6 °C-4.4 °C70 %1030.5 hPa16.1 kmCalmOvercast
8:54 PM-1.1 °C-5 °C75 %1030.1 hPa16.1 kmWSW (250°)9.3 km/hMostly Cloudy
9:54 PM-3.3 °C-5.6 °C84 %1030.5 hPa16.1 kmCalmMostly Cloudy
10:54 PM-3.3 °C-6.1 °C81 %1030.5 hPa16.1 kmWSW (250°)11.1 km/hClear
11:54 PM-3.3 °C-6.1 °C81 %1030.5 hPa16.1 kmWest (260°)5.6 km/hClear
Hourly data recorded from KSUS, located 0 kilometers away from St. Louis, Missouri







STORIES FROM OUR PARTNERS